Tracking 20942 objects as of 9-Jul-2020
HD Live streaming from Space Station
objects crossing your sky now

DELTA 1 DEB

Track DELTA 1 DEB now!
10-day predictions


NORAD ID: 12177
Int'l Code: 1978-026S
Perigee: 812.9 km
Apogee: 1,041.1 km
Inclination: 98.7 °
Period: 103.4 minutes
Semi major axis: 7298 km
RCS: 0.0985 m2 (small)
Launch date: March 5, 1978
Source: United States (US)
Launch site: AIR FORCE WESTERN TEST RANGE (AFWTR)

Note: This is SATELLITE DEBRIS
aabbcc
Your satellite tracking list
Your tracking list is empty




NASA's NSSDC Master Catalog

Two Line Element Set (TLE):
1 12177U 78026S   20191.47235844 +.00000134 +00000-0 +12317-3 0  9996
2 12177 098.7279 357.5595 0156326 358.5892 061.9090 13.92499941997847
Source of the keplerian elements: AFSPC